Home   Weather   43°40'N, 70°23'W   Past weeks
Flag for USA

Past Weather in 43°40'N, 70°23'W, USA — Yesterday and Last 2 Weeks

Now
59 °F

Fog.


Feels Like: 59 °F
Forecast: 62 / 57 °F
Wind: 5 mph from Southeast

Location: Portland - Portland International Jetport

Current Time: Jun 18, 2019 at 9:34:47 pm

Latest Report: Jun 18, 2019 at 8:51 pm


Visibility: 2 mi

Pressure: 29.91 "Hg

Humidity: 93%

Dew Point: 57 °F

Location of 43°40'N, 70°23'WLocation

Past Weather in 43°40'N, 70°23'W — Graph

°F

43°40'N, 70°23'W Temperature Yesterday

Maximum temperature yesterday: 76 °F (at 12:51 pm)
Minimum temperature yesterday: 57 °F (at 10:51 pm)
Average temperature yesterday: 66 °F

High & Low Weather Summary for the Past Weeks

 TemperatureHumidityPressure
High77 °F (Jun 10, 12:51 pm)97% (Jun 16, 8:51 pm)30.36 "Hg (Jun 16, 8:51 pm)
Low47 °F (Jun 4, 4:51 am)29% (Jun 4, 3:51 pm)29.64 "Hg (Jun 6, 4:51 am)
Average61 °F70%29.94 "Hg
* Reported Jun 3 7:51 pm — Jun 18 7:51 pm, 43°40'N, 70°23'W. Weather by CustomWeather, © 2019

Note: Actual official high and low records may vary slightly from our data, if they occured in-between our weather recording intervals... More about our weather records

Advertising

43°40'N, 70°23'W Weather History for the Previous 24 Hours

Scroll right to see more
 ConditionsComfort  
Time TempWeatherWind HumidityBarometerVisibility
7:51 pm
Tue, Jun 18
61 °FPartly sunny.7 mph87%29.91 "Hg8 mi
6:51 pm63 °FPartly sunny.6 mph81%29.92 "Hg10 mi
5:51 pm64 °FBroken clouds.6 mph75%29.93 "Hg10 mi
4:51 pm64 °FPartly sunny.5 mph70%29.93 "Hg9 mi
3:51 pm64 °FScattered clouds.7 mph65%29.94 "Hg10 mi
2:51 pm67 °FBroken clouds.3 mph59%29.96 "Hg10 mi
1:51 pm67 °FScattered clouds.6 mph57%29.97 "Hg10 mi
12:51 pm67 °FOvercast.8 mph53%29.98 "Hg10 mi
11:51 am67 °FMostly cloudy.6 mph55%30.00 "Hg10 mi
10:51 am68 °FMostly cloudy.5 mph53%30.00 "Hg10 mi
9:51 am68 °FMostly cloudy.6 mph53%29.99 "Hg10 mi
8:51 am67 °FPartly sunny.5 mph57%30.00 "Hg10 mi
7:51 am64 °FMostly cloudy.5 mph61%30.00 "Hg10 mi
6:51 am61 °FMostly cloudy.No wind70%30.00 "Hg10 mi
5:51 am59 °FMostly cloudy.5 mph75%30.00 "Hg10 mi
4:51 am56 °FPartly cloudy.3 mph81%29.99 "Hg10 mi
3:51 am55 °FPassing clouds.5 mph83%29.99 "Hg10 mi
2:51 am56 °FClear.5 mph77%29.98 "Hg10 mi
1:51 am58 °FClear.No wind78%29.99 "Hg10 mi
12:51 am59 °FClear.3 mph78%29.98 "Hg10 mi
11:51 pm
Mon, Jun 17
58 °FClear.5 mph81%29.98 "Hg10 mi
10:51 pm57 °FClear.6 mph83%29.98 "Hg10 mi
9:51 pm60 °FClear.No wind72%29.97 "Hg10 mi
Weather by CustomWeather, © 2019

See weather overview